Regional Weather Roundup
Issued by NWS Kansas City/Pleasant Hill, MO

Home | Current Version | Previous Version | Graphics & Text | Print | Product List | Glossary Off
Versions: 1 2 3 4 5 6 7 8 9 10 11 12 13 14 15 16 17 18 19 20 21 22 23 24 25 26 27 28 29 30 31 32 33 34 35 36 37 38 39 40 41 42 43 44 45 46 47 48 49 50

524
ASUS43 KEAX 250010
RWREAX

WEATHER ROUNDUP FOR EASTERN KANSAS AND NORTHWEST MISSOURI
NATIONAL WEATHER SERVICE KANSAS CITY/PLEASANT HILL MO
700 PM CDT SUN SEP 24 2017

KSZ040-057-103>105-MOZ028-029-037-043-250100-
...KANSAS CITY METROPOLITAN AREA...

CITY           SKY/WX    TMP DP  RH WIND       PRES   REMARKS
K.C. INTL      PTCLDY    79  68  69 SE5       29.91S
6HR MIN TEMP:  78; 6HR MAX TEMP:  87;

K.C. DOWNTOWN  CLEAR     86  66  51 SE7       29.89S
6HR MIN TEMP:  86; 6HR MAX TEMP:  91;

LEES SUMMIT    CLEAR     83  67  58 SE7       29.93R
6HR MIN TEMP:  83; 6HR MAX TEMP:  90;

OLATHE - IXD   CLEAR     81  65  58 SE7       29.92R
6HR MIN TEMP:  80; 6HR MAX TEMP:  88;

OLATHE - OJC   CLEAR     79  67  66 S5        29.92R
6HR MIN TEMP:  79; 6HR MAX TEMP:  86;

LAWRENCE       CLOUDY    83  67  58 E5        29.89S

$$

MOZ001>008-011>017-020>025-030>033-038>040-044>046-053-054-250100-
...NORTHERN AND CENTRAL MISSOURI...

CITY           SKY/WX    TMP DP  RH WIND       PRES   REMARKS
ST. JOSEPH     CLEAR     82  67  60 SE8       29.89S
6HR MIN TEMP:  82; 6HR MAX TEMP:  92;

MOSBY          CLEAR     82  63  51 S3        29.91R
WARRENSBURG    CLEAR     81  66  61 SE3       29.92S
WHITEMAN AFB   CLEAR     82  70  66 S5        29.92R
6HR MIN TEMP:  82; 6HR MAX TEMP:  89; 6HR PCP: TRACE;

CLINTON        CLEAR     82  70  65 CALM      29.93S
SEDALIA        CLEAR     83  70  64 SE6       29.95R
6HR MIN TEMP:  83; 6HR MAX TEMP:  91;

WARSAW         NOT AVBL
CHILLICOTHE      N/A     82  67  60 CALM      29.92S
6HR MIN TEMP:  82; 6HR MAX TEMP:  90;

KIRKSVILLE     CLEAR     84  62  47 E5        29.95R
6HR MIN TEMP:  81; 6HR MAX TEMP:  91;


$$

MOZ041-047>049-056>058-063>065-088>090-097-250100-
...EASTERN AND SOUTHERN MISSOURI...

CITY           SKY/WX    TMP DP  RH WIND       PRES   REMARKS
ST. LOUIS INTL PTCLDY    85  63  47 E7        29.96S
6HR MIN TEMP:  85; 6HR MAX TEMP:  92;

SPIRIT OF STL  PTCLDY    82  69  64 CALM      29.94R
COLUMBIA       CLEAR     85  66  53 E5        29.95S
JEFFERSON CITY CLEAR     82  67  60 E3        29.92S
ROLLA          CLEAR     77  68  73 SW5       29.97S
OSAGE BEACH    CLEAR     77  70  79 CALM      29.96R
SPRINGFIELD    CLOUDY    75  65  70 E6        29.96S
BRANSON        MOCLDY    72  68  88 CALM      29.98R
JOPLIN         CLEAR     82  67  60 SE5       29.92R
WEST PLAINS    CLOUDY    73  63  70 E7        30.00F

$$

IAZ060-094-KSZ022-034>040-054-083-096-NEZ052-066-093-250100-
...KANSAS...SOUTHEAST NEBRASKA AND IOWA...

CITY           SKY/WX    TMP DP  RH WIND       PRES   REMARKS
TOPEKA         PTCLDY    82  68  62 SE7       29.88R
6HR MIN TEMP:  82; 6HR MAX TEMP:  90;

MANHATTAN      PTCLDY    86  63  45 S13       29.85S
EMPORIA        PTCLDY    81  63  54 SE8       29.89R
CHANUTE        PTCLDY    81  68  64 SE7       29.91R
WICHITA        PTCLDY    84  64  50 S12       29.86R
OMAHA          CLOUDY    76  69  79 CALM      29.87S
LINCOLN        CLOUDY    77  64  64 NW17      29.89R
FALLS CITY     MOCLDY    84  63  49 S8        29.87R
LAMONI         PTCLDY    83  64  52 S5        29.92R
DES MOINES     PTCLDY    84  62  47 SE7       29.90R

$$





USA.gov is the U.S. government's official web portal to all federal, state and local government web resources and services.